Location: ??????????
(44.2167°N, 135.5333°E)
Time: 15:10:29
(UTC+00:00)

Cosmos 1536 Rocket - Pass Details

Date: 15 June 2025
Orbit: 600 x 625 km, 82.5° (Epoch: 16 July)

Event Time Altitude Azimuth Distance (km) Brightness Sun altitude
Exits shadow 17:52:08 - 174° (S) 2,205 6.0 -11.6°
Reaches altitude 10° 17:52:48 10° 172° (S) 1,939 5.7 -11.6°
Maximum altitude 17:56:59 56° 94° (E) 716 4.1 -11.1°
Drops below altitude 10° 18:01:12 10° 17° (NNE) 1,952 7.3 -10.6°
Sets 18:03:27 0° 13° (NNE) 2,860 8.1 -10.3°
